Location: Ergnies
(50.0854°N, 2.0375°E)
Time: 15:49:13
(UTC+00:00)

Timation 2 Rocket - Pass Details

Date: 14 January 2026
Orbit: 907 x 1072 km, 70.0° (Epoch: 18 February)

Event Time Altitude Azimuth Distance (km) Brightness Sun altitude
Rises 06:17:32 0° 211° (SSW) 3,787 6.9 -13.6°
Reaches altitude 10° 06:20:10 10° 213° (SSW) 2,818 6.3 -13.2°
Maximum altitude 06:26:47 83° 300° (WNW) 1,012 4.0 -12.2°
Drops below altitude 10° 06:33:08 10° 30° (NNE) 2,716 6.5 -11.2°
Sets 06:35:39 0° 31° (NNE) 3,642 7.1 -10.8°
